Wind_Speed
39 38 38 38 38 38 34 31 30 28 27 26 24 24 24 23 23 22 19 17 16 16 15 14 14 13 13 12 12 11 11 11 11 11 11 11 11 11 11 11 11 12 12 12 12 12 13 13 14
40 40 40 40 40 39 34 32 32 30 28 27 26 25 25 25 24 22 20 19 18 17 16 15 15 14 14 13 13 13 12 12 12 12 12 12 12 12 12 12 13 13 13 13 14 14 14 14 15
42 42 42 42 41 38 34 34 34 31 30 29 28 27 27 26 24 23 22 21 19 18 18 17 16 15 15 15 14 14 14 14 13 13 13 13 13 13 13 14 14 14 14 14 15 15 15 15 15
43 44 44 44 42 38 37 37 35 33 31 30 30 29 29 26 25 25 24 23 21 20 19 19 18 17 16 16 16 15 15 15 14 14 14 14 14 14 15 15 15 15 15 15 15 15 15 15 15
45 45 46 45 41 39 38 38 36 34 33 32 31 30 30 28 27 27 26 25 23 22 21 20 19 18 17 17 17 17 16 16 15 15 15 15 15 15 16 16 15 16 16 16 16 16 16 16 16
46 47 47 45 42 40 39 38 37 36 34 33 33 32 31 29 29 29 27 26 25 24 23 22 20 20 19 18 18 18 18 17 16 16 16 16 16 17 17 17 16 16 16 16 16 16 17 17 17
47 47 47 45 43 42 41 39 38 37 36 36 34 34 33 31 31 30 29 28 26 25 24 23 22 21 20 20 19 19 19 18 18 17 17 17 17 18 17 17 17 17 17 18 18 18 18 19 19
47 48 48 46 45 43 42 41 39 38 37 37 37 36 34 32 32 31 30 29 28 27 26 24 23 22 22 21 21 20 20 19 19 19 18 18 18 18 18 18 18 18 19 19 19 19 20 20 20
49 50 48 46 45 43 42 41 41 40 38 39 39 38 36 34 34 33 32 30 29 28 27 26 25 24 23 22 22 21 21 21 20 20 20 19 19 19 19 19 19 19 20 20 20 20 21 21 21
49 50 47 46 46 45 43 42 41 41 41 40 39 38 37 36 35 34 33 31 30 29 28 27 26 26 25 24 23 22 22 22 21 21 21 21 20 20 20 20 20 20 21 21 21 21 22 22 22
49 49 48 48 47 45 44 43 43 42 43 42 40 39 38 37 36 35 34 33 32 31 30 29 28 27 26 25 24 23 23 22 22 22 22 22 22 21 21 21 21 22 22 22 22 22 22 23 24
49 49 49 49 47 46 45 44 44 44 43 43 42 41 39 38 37 36 36 34 33 32 31 30 29 28 27 26 25 25 24 23 23 23 23 23 23 23 23 22 23 23 23 23 23 23 24 25 25
50 50 50 50 49 48 46 44 45 45 45 43 42 41 40 40 39 38 37 36 35 33 32 31 30 29 28 28 27 26 25 25 24 24 24 24 24 24 24 24 24 24 23 23 23 24 25 25 26
50 50 50 50 50 49 47 46 46 45 45 44 43 42 41 41 40 39 38 37 36 35 34 32 32 31 30 29 28 27 27 26 26 26 25 25 25 25 25 25 24 24 24 24 24 25 25 26 26
50 50 50 51 50 49 49 48 47 46 45 45 44 44 42 42 41 40 39 38 37 36 35 34 33 32 31 30 29 29 28 27 27 26 26 26 26 26 26 25 25 25 25 26 26 26 27 27 28
49 50 50 50 50 50 50 48 47 47 46 46 45 45 43 42 42 41 40 40 38 37 36 35 35 34 32 32 31 30 29 28 28 27 27 27 27 27 26 26 26 26 26 26 27 28 28 29 30
50 50 49 48 49 49 50 48 47 47 46 46 46 45 44 43 43 42 41 40 39 38 37 37 36 35 34 33 33 32 30 30 29 29 28 28 28 28 28 27 28 28 27 28 28 29 30 31 32
49 49 48 48 48 49 49 48 47 47 47 46 46 45 44 44 43 43 42 41 40 39 38 38 37 36 35 34 34 33 32 31 31 30 29 30 29 29 29 29 29 28 29 29 30 31 32 32 33
47 48 48 47 47 48 48 48 47 47 47 47 46 45 45 44 44 43 43 42 41 40 39 39 38 37 36 36 35 34 33 32 31 30 30 30 30 30 30 30 30 30 31 31 32 33 33 33 33
46 47 47 47 47 47 48 48 48 47 47 47 47 46 46 45 44 44 43 42 42 41 40 40 39 38 37 37 36 35 34 33 32 31 30 30 30 30 30 31 31 32 33 33 33 34 34 34 35
46 47 47 46 47 47 47 48 48 47 47 47 47 46 46 45 44 43 42 42 42 41 41 40 40 39 38 37 37 36 35 34 33 32 31 31 30 30 31 32 32 33 34 34 35 35 35 36 36
44 45 46 46 47 47 47 48 48 47 47 47 46 45 45 45 44 43 42 42 42 42 41 41 41 40 39 38 37 36 35 34 33 33 33 32 32 32 32 33 34 34 35 35 36 36 37 37 38
43 44 45 46 46 47 47 48 48 47 47 46 45 45 44 44 44 43 43 43 43 42 41 41 41 40 39 39 37 37 36 35 35 35 34 34 33 34 34 34 35 35 36 37 37 37 38 39 40
41 42 43 44 45 47 47 48 48 47 46 45 45 44 44 44 43 43 43 43 42 42 41 41 41 40 40 39 38 38 37 36 36 36 36 36 35 35 36 36 36 36 37 37 38 38 39 40 41
41 41 41 42 44 47 46 47 48 46 46 45 44 44 44 44 43 42 42 42 41 41 41 42 41 41 40 39 39 38 37 37 37 37 37 37 37 37 37 37 37 38 38 38 39 40 40 41 42
40 40 41 41 43 44 44 46 47 46 45 45 44 44 44 44 43 42 42 42 41 41 42 42 42 41 41 40 39 39 38 38 38 38 38 38 38 38 38 38 38 38 38 39 40 40 41 42 43
40 40 39 39 40 41 42 43 44 45 45 44 43 43 43 43 43 43 43 42 42 42 42 43 43 42 42 41 41 40 40 40 39 39 39 39 39 39 39 39 39 40 40 40 41 41 42 43 44
39 37 38 38 38 40 41 42 42 42 43 43 43 43 43 43 43 43 43 43 43 43 43 44 43 43 43 42 42 42 41 41 40 40 40 40 40 40 40 40 41 41 41 42 42 43 44 45 45
39 39 39 39 38 38 40 41 40 41 41 42 42 42 42 42 43 43 43 42 43 43 43 44 44 44 43 43 43 43 42 42 41 41 41 40 41 41 41 41 42 42 42 43 43 44 45 45 45
38 39 38 38 39 39 39 39 39 39 39 39 40 40 40 41 41 41 41 42 42 43 44 44 45 45 45 44 44 44 44 43 43 42 42 42 42 42 42 42 42 43 43 44 44 45 45 45 46
Wind_Direction
233 232 230 229 230 230 229 228 229 228 227 228 229 229 230 232 235 237 238 236 236 237 237 239 242 243 246 249 252 255 258 260 263 266 270 273 278 282 286 289 291 295 298 299 300 301 301 303 304
232 231 231 230 230 230 228 229 229 228 227 227 227 229 231 233 235 237 237 235 235 235 236 239 242 245 248 251 254 256 259 263 265 267 270 273 277 280 284 288 289 293 296 297 299 299 300 301 301
232 231 231 230 231 229 228 229 229 227 227 226 227 228 230 232 234 235 236 235 234 235 236 239 242 246 249 252 256 258 260 263 265 267 269 272 276 280 283 286 288 290 292 294 296 298 298 298 299
232 231 231 231 230 228 229 229 229 227 227 226 227 228 230 231 232 233 235 235 234 236 238 241 244 247 250 252 254 258 260 263 266 268 270 272 275 278 282 284 286 288 290 292 294 296 296 295 296
231 230 231 230 229 228 229 229 228 228 227 227 227 228 229 229 231 232 234 235 236 237 240 243 245 247 250 252 254 257 260 262 264 268 271 273 275 279 281 282 284 286 288 290 291 292 294 294 295
231 231 231 230 229 228 228 229 228 228 227 227 227 228 228 228 230 232 234 236 236 238 240 243 245 248 250 253 254 256 259 261 264 267 270 273 276 278 280 281 283 284 286 289 290 291 292 292 293
231 230 230 230 229 228 228 229 229 228 228 227 227 229 228 228 230 232 234 236 237 238 240 242 244 247 251 254 255 256 258 261 264 267 270 272 275 277 278 280 281 283 285 288 289 290 291 291 292
230 230 229 229 229 228 228 229 229 228 229 228 228 229 229 229 231 233 235 236 237 238 240 242 244 247 250 253 254 255 258 261 264 267 269 272 274 276 277 278 281 283 286 288 288 289 290 291 291
229 229 228 228 229 228 228 229 229 228 229 229 230 231 231 231 232 234 235 236 237 239 240 242 244 247 249 252 254 255 258 260 264 266 269 271 273 276 277 278 281 284 287 287 288 289 290 291 291
229 229 228 228 229 229 227 228 228 228 229 230 230 231 231 232 232 234 235 236 238 239 241 243 245 247 249 251 253 255 258 260 263 266 268 270 272 275 277 278 281 284 287 288 288 289 290 291 292
229 229 227 228 229 229 228 228 227 228 228 230 231 231 232 232 233 234 235 237 238 240 242 244 245 246 249 251 253 256 258 260 263 265 268 270 272 273 275 278 281 284 286 287 288 289 290 291 293
229 228 228 229 228 228 228 228 227 227 228 230 232 232 232 233 233 234 235 237 238 240 242 244 245 247 249 251 253 255 257 260 263 266 268 269 271 272 274 277 280 283 285 286 287 288 291 292 292
228 227 227 229 229 228 228 228 227 228 229 230 231 232 232 232 233 233 235 237 239 241 242 244 245 247 249 251 253 255 257 260 263 266 268 270 271 272 274 277 279 282 284 286 288 289 292 293 293
227 226 227 228 229 228 228 228 228 228 229 230 231 232 232 233 233 234 236 238 240 242 243 244 246 247 248 250 252 255 257 260 264 267 269 270 271 272 274 276 279 281 283 285 288 289 291 293 294
225 226 227 227 228 229 229 229 228 228 229 230 231 232 233 234 234 235 236 238 240 242 243 244 245 247 248 250 253 254 257 260 263 266 268 270 271 273 274 275 278 281 283 285 288 289 291 293 295
225 226 227 227 228 229 229 229 228 228 229 230 231 232 233 234 235 235 237 238 240 241 243 244 245 247 248 250 252 254 256 259 262 264 266 268 271 271 272 274 277 280 283 286 288 288 290 293 294
225 226 227 227 228 229 229 229 229 229 229 230 231 232 233 233 234 235 237 238 239 241 242 244 245 247 248 250 251 253 256 258 261 263 265 267 269 271 272 275 278 281 284 286 287 289 291 292 293
226 227 227 227 227 229 229 229 229 229 229 230 230 231 232 233 234 235 236 237 239 240 241 243 245 247 248 249 251 253 255 257 260 262 265 267 269 271 274 276 278 281 283 285 288 289 291 292 293
226 227 228 228 228 229 229 230 230 229 230 230 230 231 232 233 234 235 236 237 238 240 241 243 245 246 248 249 251 252 254 257 259 262 264 266 268 271 274 276 279 281 284 286 288 289 291 292 292
225 226 227 228 228 229 229 229 230 229 230 230 231 232 233 234 235 235 236 237 238 240 242 243 244 246 247 248 250 252 254 256 259 262 264 266 268 271 274 276 279 282 285 287 288 289 290 292 293
223 225 225 226 227 228 229 229 229 229 229 230 231 232 233 234 235 236 236 237 238 239 241 243 244 245 247 248 250 251 253 256 259 260 262 265 268 271 274 277 279 282 285 287 288 289 290 292 293
223 224 225 226 228 228 230 231 228 229 229 230 230 231 233 234 235 236 236 237 238 239 240 242 243 244 246 247 249 252 253 255 257 260 261 264 267 270 274 277 279 282 285 287 289 290 291 292 293
222 223 225 227 229 230 230 232 229 229 230 230 231 231 233 234 235 236 236 237 238 239 240 242 243 244 245 247 249 251 253 255 257 259 262 265 268 271 274 277 280 282 285 287 289 290 291 293 294
221 222 225 227 229 231 231 234 233 230 230 231 231 232 233 234 234 235 236 237 238 239 240 241 242 243 245 246 248 251 254 256 258 260 263 265 269 272 274 276 279 283 285 286 288 289 291 292 294
220 220 221 225 229 232 231 234 235 232 231 232 232 233 234 235 235 236 236 237 239 240 240 241 242 243 244 246 249 251 253 256 258 261 263 266 269 271 274 276 279 282 284 286 287 290 291 293 294
219 220 221 225 229 232 232 234 235 234 233 233 233 233 234 235 236 236 237 237 238 239 240 241 242 243 244 246 248 251 254 256 258 261 264 267 269 271 274 276 279 282 284 286 288 290 291 293 294
220 220 221 226 231 233 233 234 235 234 235 234 234 234 235 235 236 237 237 238 239 239 240 241 241 243 245 247 249 252 254 257 259 262 264 267 269 271 274 277 279 282 284 286 288 289 291 293 294
221 222 221 224 228 233 235 235 236 234 235 236 236 236 236 237 237 237 238 239 240 241 241 241 242 243 245 247 249 252 255 257 259 262 265 267 270 272 275 277 279 281 284 286 288 290 292 293 294
219 219 223 225 228 232 235 236 236 237 236 236 237 237 237 238 237 238 239 240 241 242 242 242 243 245 246 248 250 252 255 258 260 262 264 267 270 273 275 277 279 282 284 286 288 290 292 292 293
221 223 225 226 229 232 236 237 236 237 237 237 238 238 238 238 238 239 240 241 242 242 242 242 244 245 247 248 250 252 254 257 259 262 264 267 270 272 275 278 280 283 285 287 289 291 292 292 293
Height
5798 5800 5804 5807 5811 5814 5818 5824 5827 5831 5834 5837 5840 5842 5844 5847 5849 5853 5854 5855 5857 5859 5860 5862 5863 5864 5865 5866 5867 5868 5869 5869 5869 5870 5870 5870 5870 5870 5870 5870 5870 5870 5870 5869 5869 5868 5868 5867 5867
5791 5794 5797 5800 5804 5808 5815 5820 5822 5826 5830 5833 5836 5839 5841 5842 5845 5848 5850 5852 5854 5856 5858 5859 5861 5862 5863 5864 5865 5866 5867 5867 5868 5868 5868 5868 5869 5869 5869 5869 5868 5868 5868 5868 5867 5866 5866 5865 5865
5783 5786 5790 5794 5798 5804 5811 5814 5817 5821 5825 5829 5832 5835 5837 5839 5842 5844 5847 5849 5851 5853 5855 5857 5858 5860 5861 5862 5863 5864 5864 5865 5865 5866 5866 5866 5867 5867 5867 5867 5866 5866 5866 5866 5865 5864 5864 5863 5863
5775 5779 5783 5788 5793 5800 5804 5807 5811 5816 5820 5824 5827 5830 5833 5836 5839 5841 5843 5845 5848 5850 5852 5854 5855 5857 5858 5860 5861 5861 5862 5863 5863 5864 5864 5864 5864 5865 5865 5864 5864 5864 5864 5863 5863 5862 5862 5861 5860
5767 5771 5776 5781 5788 5794 5797 5801 5806 5811 5815 5819 5822 5825 5828 5832 5834 5837 5839 5842 5845 5847 5849 5851 5852 5854 5855 5857 5858 5859 5859 5860 5861 5861 5862 5862 5862 5862 5862 5862 5862 5862 5861 5861 5860 5860 5859 5859 5858
5760 5764 5769 5775 5782 5787 5792 5796 5801 5805 5810 5813 5817 5820 5824 5827 5830 5832 5835 5838 5841 5843 5845 5847 5849 5851 5852 5854 5855 5856 5857 5857 5858 5859 5859 5859 5859 5859 5859 5859 5859 5859 5859 5858 5858 5857 5857 5856 5855
5753 5757 5762 5769 5774 5780 5785 5789 5795 5799 5804 5807 5811 5814 5818 5823 5825 5828 5831 5834 5837 5839 5842 5843 5845 5847 5849 5850 5851 5852 5853 5854 5855 5856 5856 5856 5857 5857 5857 5856 5856 5856 5856 5855 5855 5854 5853 5853 5852
5744 5750 5755 5761 5767 5773 5779 5783 5788 5793 5798 5802 5805 5809 5813 5818 5821 5824 5826 5830 5832 5835 5838 5840 5842 5843 5845 5846 5848 5849 5850 5851 5852 5853 5853 5853 5854 5854 5854 5853 5853 5853 5853 5852 5852 5851 5850 5849 5848
5735 5742 5748 5755 5760 5766 5772 5777 5782 5787 5791 5795 5799 5804 5809 5813 5816 5819 5822 5825 5828 5831 5833 5835 5838 5839 5841 5842 5844 5845 5846 5848 5848 5849 5850 5850 5850 5851 5851 5850 5850 5850 5849 5849 5848 5847 5847 5846 5845
5727 5734 5743 5748 5753 5758 5764 5769 5775 5780 5785 5788 5793 5798 5803 5807 5810 5814 5817 5820 5823 5826 5829 5831 5833 5835 5837 5838 5840 5841 5843 5844 5845 5845 5846 5847 5847 5847 5847 5847 5847 5847 5846 5845 5844 5844 5843 5842 5841
5720 5728 5735 5739 5744 5750 5756 5762 5767 5773 5778 5782 5787 5792 5796 5801 5804 5808 5811 5815 5818 5821 5824 5826 5828 5830 5832 5834 5836 5837 5838 5840 5841 5841 5842 5843 5843 5843 5843 5844 5843 5843 5842 5841 5840 5840 5839 5838 5837
5713 5720 5725 5730 5736 5743 5749 5754 5760 5765 5771 5776 5780 5785 5790 5795 5799 5803 5806 5809 5812 5816 5818 5821 5823 5826 5828 5829 5831 5833 5834 5835 5836 5837 5838 5838 5839 5839 5839 5840 5839 5839 5838 5837 5837 5836 5835 5834 5833
5704 5711 5717 5722 5728 5735 5741 5747 5752 5758 5763 5769 5774 5779 5784 5788 5792 5796 5800 5803 5807 5810 5813 5816 5818 5821 5823 5825 5827 5828 5830 5831 5832 5833 5834 5834 5834 5835 5835 5835 5835 5834 5834 5833 5832 5831 5830 5829 5828
5696 5702 5708 5713 5720 5726 5733 5738 5744 5750 5756 5762 5767 5772 5777 5781 5786 5790 5794 5797 5801 5804 5807 5810 5813 5815 5818 5820 5822 5823 5825 5826 5827 5828 5829 5829 5830 5830 5831 5830 5830 5830 5829 5828 5828 5827 5826 5825 5823
5686 5693 5699 5705 5712 5718 5724 5730 5737 5743 5748 5754 5759 5765 5770 5774 5779 5783 5787 5791 5795 5798 5801 5804 5807 5809 5812 5814 5816 5818 5819 5821 5822 5823 5824 5824 5825 5825 5825 5825 5825 5825 5824 5824 5823 5822 5821 5819 5818
5677 5683 5690 5698 5703 5709 5716 5723 5729 5735 5741 5746 5752 5757 5762 5767 5772 5777 5780 5784 5788 5792 5795 5798 5801 5803 5806 5809 5811 5812 5814 5816 5817 5818 5819 5819 5820 5820 5820 5820 5820 5820 5819 5818 5818 5816 5815 5814 5812
5667 5674 5682 5690 5695 5701 5707 5715 5721 5726 5732 5738 5744 5749 5755 5760 5765 5769 5774 5778 5781 5785 5788 5792 5794 5797 5800 5803 5805 5807 5808 5810 5811 5812 5813 5814 5814 5814 5815 5815 5815 5814 5814 5813 5812 5811 5809 5808 5806
5662 5669 5675 5681 5687 5693 5699 5706 5713 5718 5724 5730 5736 5741 5747 5752 5758 5762 5766 5771 5774 5778 5782 5785 5788 5791 5794 5796 5798 5801 5803 5804 5805 5806 5807 5808 5808 5809 5809 5809 5809 5808 5808 5807 5806 5805 5803 5801 5800
5655 5661 5667 5674 5679 5685 5691 5697 5704 5710 5716 5722 5728 5733 5739 5744 5749 5754 5759 5763 5767 5771 5775 5778 5781 5784 5787 5790 5792 5794 5796 5798 5799 5800 5801 5802 5802 5803 5803 5803 5803 5802 5802 5801 5799 5798 5796 5794 5793
5645 5651 5658 5665 5670 5676 5683 5689 5695 5701 5708 5714 5720 5725 5731 5736 5741 5747 5751 5756 5760 5764 5767 5771 5774 5777 5780 5783 5785 5787 5789 5791 5793 5794 5795 5796 5796 5796 5796 5796 5796 5795 5795 5794 5792 5791 5789 5787 5785
5636 5644 5651 5657 5662 5667 5674 5680 5686 5693 5700 5705 5711 5717 5723 5728 5734 5739 5743 5748 5752 5756 5760 5763 5767 5770 5773 5775 5778 5780 5782 5784 5786 5787 5789 5789 5790 5790 5790 5790 5789 5789 5788 5787 5785 5783 5782 5780 5777
5629 5637 5643 5649 5653 5659 5666 5671 5679 5685 5691 5697 5704 5709 5715 5720 5726 5731 5735 5740 5744 5748 5752 5755 5759 5762 5765 5768 5771 5773 5776 5778 5779 5780 5781 5782 5783 5783 5783 5783 5782 5782 5780 5779 5778 5776 5774 5772 5770
5623 5629 5635 5641 5646 5651 5657 5662 5670 5676 5682 5690 5696 5702 5707 5712 5717 5722 5727 5731 5736 5740 5744 5747 5751 5754 5757 5760 5763 5766 5768 5770 5772 5773 5774 5775 5776 5776 5776 5776 5775 5774 5773 5772 5770 5768 5766 5764 5761
5615 5622 5628 5633 5637 5642 5650 5654 5661 5669 5676 5683 5689 5694 5699 5704 5709 5714 5718 5723 5727 5731 5735 5739 5742 5746 5749 5752 5755 5758 5761 5762 5764 5766 5767 5768 5768 5768 5768 5768 5767 5766 5765 5763 5762 5760 5758 5755 5752
5607 5614 5620 5624 5628 5634 5643 5646 5654 5662 5669 5675 5681 5686 5691 5696 5701 5705 5710 5715 5719 5723 5727 5731 5734 5738 5741 5744 5747 5750 5753 5755 5756 5758 5759 5759 5760 5760 5760 5760 5759 5758 5757 5755 5753 5751 5749 5746 5743
5600 5607 5614 5619 5623 5629 5635 5639 5648 5655 5661 5667 5672 5678 5683 5687 5692 5697 5702 5706 5711 5714 5718 5722 5726 5729 5733 5736 5739 5742 5744 5746 5748 5749 5750 5751 5752 5752 5752 5751 5750 5749 5748 5747 5745 5743 5740 5737 5734
5594 5600 5608 5613 5617 5622 5627 5633 5640 5646 5652 5659 5664 5669 5674 5679 5684 5689 5693 5697 5702 5706 5709 5713 5717 5721 5724 5727 5730 5733 5735 5737 5739 5741 5742 5742 5743 5743 5743 5742 5741 5740 5739 5738 5736 5733 5731 5728 5724
5588 5595 5600 5605 5610 5615 5621 5627 5633 5639 5645 5650 5656 5661 5665 5670 5675 5680 5684 5689 5693 5697 5700 5704 5708 5712 5715 5718 5721 5724 5726 5728 5730 5731 5733 5734 5734 5734 5734 5733 5732 5731 5730 5728 5726 5724 5721 5717 5714
5582 5588 5593 5598 5604 5609 5614 5622 5626 5631 5637 5642 5647 5652 5657 5662 5666 5671 5675 5680 5684 5687 5691 5695 5698 5702 5706 5709 5712 5715 5717 5719 5721 5722 5723 5724 5725 5725 5724 5724 5723 5722 5720 5718 5716 5713 5710 5707 5703
5576 5581 5587 5593 5598 5603 5608 5617 5619 5624 5629 5634 5639 5644 5648 5653 5658 5662 5666 5670 5674 5678 5682 5685 5689 5692 5696 5699 5702 5705 5708 5710 5711 5713 5714 5715 5715 5715 5715 5714 5713 5712 5710 5708 5706 5703 5700 5696 5693